Weather History for Aurora, OR

Change the Weather History Date:

Thursday, March 28, 2013

  Actual Average Record
Temperature  
Mean Temperature 55 °F -  
Max Temperature 67 °F - 70 °F (2004)
Min Temperature 44 °F - 30 °F (1998)
Degree Days  
Heating Degree Days 9    
Month to date heating degree days 513  
Since 1 July heating degree days 3638  
Cooling Degree Days 0    
Month to date cooling degree days 0  
Year to date cooling degree days 0  
Growing Degree Days 5 (Base 50)    
Moisture  
Dew Point 46 °F    
Average Humidity 71    
Maximum Humidity 100    
Minimum Humidity 42    
Precipitation  
Precipitation 0.01 in - 0.82 in (2014)
Month to date precipitation 2.33  
Year to date precipitation 6.01  
Sea Level Pressure  
Sea Level Pressure 30.05 in    
Wind  
Wind Speed 3 mph (WNW)    
Max Wind Speed 9 mph    
Max Gust Speed 12 mph    
Visibility 7 miles    
Events Rain    
T = Trace of Precipitation, MM = Missing Value Source: NWS Daily Summary

Daily Weather History Graph

Daily Weather History Graph

Search for Another Location

Airport:

Trip Planner

Search our weather history database for the weather conditions in past years. The results will help you decide how hot, cold, wet, or windy it might be!

Date:

Astronomy

Mar. 28, 2013 Rise Set
Actual Time 6:58 AM PDT 7:34 PM PDT
Civil Twilight 6:28 AM PDT 8:04 PM PDT
Nautical Twilight 5:53 AM PDT 8:39 PM PDT
Astronomical Twilight 5:17 AM PDT 9:15 PM PDT
Moon 9:40 PM PDT (3/28) 7:24 AM PDT (3/28)
Length of Visible Light 13h 35m
Length of Day
12h 35m
Full, 98% of the Moon is Illuminated
Mar 28
Full
Apr 2
Last Quarter
Apr 10
New
Apr 18
First Quarter
Apr 25
Full

Hourly Weather History & Observations

Time (PDT) Temp. Windchill Dew Point Humidity Pressure Visibility Wind Dir Wind Speed Gust Speed Precip Events Conditions
12:53 AM 48.9 °F - 48.0 °F 97% 30.02 in 10.0 mi Calm Calm - N/A   Overcast
1:53 AM 46.0 °F - 46.0 °F 100% 30.02 in 5.0 mi Calm Calm - N/A   Mostly Cloudy
2:00 AM 46.4 °F - 46.4 °F 100% 30.02 in 1.8 mi Calm Calm - N/A   Mostly Cloudy
2:11 AM 46.4 °F - 46.4 °F 100% 30.02 in 0.8 mi Calm Calm - N/A   Mostly Cloudy
2:20 AM 46.4 °F - 46.4 °F 100% 30.03 in 2.5 mi Calm Calm - N/A   Mostly Cloudy
2:27 AM 46.4 °F - 46.4 °F 100% 30.03 in 6.0 mi Calm Calm - N/A   Overcast
2:43 AM 46.4 °F - 46.4 °F 100% 30.02 in 3.0 mi Calm Calm - N/A   Overcast
2:53 AM 46.0 °F - 46.0 °F 100% 30.03 in 2.5 mi Calm Calm - N/A   Overcast
3:04 AM 46.4 °F - 46.4 °F 100% 30.02 in 4.0 mi Calm Calm - N/A   Overcast
3:53 AM 46.0 °F - 45.0 °F 96% 30.03 in 6.0 mi Calm Calm - N/A   Scattered Clouds
4:02 AM 44.6 °F - 44.6 °F 100% 30.03 in 1.5 mi Calm Calm - N/A   Mostly Cloudy
4:21 AM 44.6 °F - 44.6 °F 100% 30.03 in 3.0 mi Calm Calm - N/A   Mostly Cloudy
4:48 AM 44.6 °F - 44.6 °F 100% 30.03 in 2.0 mi Calm Calm - N/A   Partly Cloudy
4:53 AM 44.1 °F - 44.1 °F 100% 30.04 in 7.0 mi Calm Calm - N/A   Partly Cloudy
5:24 AM 44.6 °F - 44.6 °F 100% 30.04 in 3.0 mi Calm Calm - N/A   Mostly Cloudy
5:50 AM 44.6 °F - 44.6 °F 100% 30.04 in 10.0 mi Calm Calm - N/A   Overcast
5:53 AM 45.0 °F - 44.1 °F 97% 30.04 in 10.0 mi Calm Calm - N/A   Mostly Cloudy
6:07 AM 44.6 °F - 44.6 °F 100% 30.03 in 10.0 mi Calm Calm - N/A   Overcast
6:53 AM 45.0 °F 43.5 °F 45.0 °F 100% 30.05 in 10.0 mi ENE 3.5 mph - N/A   Overcast
7:53 AM 46.9 °F - 46.0 °F 97% 30.06 in 10.0 mi Calm Calm - N/A   Overcast
8:53 AM 48.0 °F - 46.9 °F 96% 30.07 in 10.0 mi Calm Calm - N/A   Overcast
9:53 AM 48.9 °F - 46.9 °F 93% 30.07 in 10.0 mi ENE 4.6 mph - N/A   Overcast
10:53 AM 54.0 °F - 48.0 °F 80% 30.08 in 10.0 mi North 4.6 mph - N/A   Overcast
11:53 AM 59.0 °F - 48.0 °F 67% 30.07 in 10.0 mi Variable 6.9 mph - N/A   Scattered Clouds
12:53 PM 62.1 °F - 46.9 °F 58% 30.07 in 10.0 mi ENE 6.9 mph - N/A   Mostly Cloudy
1:53 PM 63.0 °F - 41.0 °F 45% 30.06 in 10.0 mi Variable 5.8 mph - N/A   Mostly Cloudy
2:53 PM 64.0 °F - 42.1 °F 45% 30.05 in 10.0 mi Variable 3.5 mph - N/A   Overcast
3:53 PM 66.9 °F - 43.0 °F 42% 30.04 in 10.0 mi Variable 5.8 mph - N/A   Partly Cloudy
4:53 PM 64.0 °F - 43.0 °F 46% 30.05 in 10.0 mi West 3.5 mph - N/A   Partly Cloudy
5:53 PM 63.0 °F - 45.0 °F 52% 30.05 in 10.0 mi NNW 3.5 mph - N/A   Overcast
6:53 PM 61.0 °F - 45.0 °F 56% 30.07 in 10.0 mi NNW 4.6 mph - N/A   Mostly Cloudy
7:53 PM 59.0 °F - 46.0 °F 62% 30.08 in 10.0 mi WNW 4.6 mph - N/A   Overcast
8:53 PM 57.0 °F - 48.0 °F 72% 30.10 in 10.0 mi WSW 5.8 mph - N/A   Overcast
9:53 PM 55.9 °F - 48.9 °F 77% 30.12 in 10.0 mi SSW 4.6 mph - N/A   Overcast
10:53 PM 55.0 °F - 50.0 °F 83% 30.14 in 10.0 mi SSW 3.5 mph - N/A   Overcast
11:53 PM 54.0 °F - 50.0 °F 86% 30.15 in 9.0 mi South 5.8 mph - 0.01 in Rain Light Rain